User: anonymous   Login
Location: Newark
(41.9000°N, 12.4833°E)
Time: 01:14:13
(UTC+00:00)
Language:

PRISM - Orbit

View from above orbital plane
View from above orbital plane
View from above satellite
View from above satellite

Ground track
Ground track

The orbit data is extracted from the following two-line orbital elements,

1 33493U 09002B   19144.52396123  .00000929  00000-0  86979-4 0  9996
2 33493  98.1226  64.5234 0013461 266.5751  93.3930 14.96629636561385
Epoch (UTC): 24 May 2019 12:34:30
Eccentricity: 0.0013461
inclination: 98.1226°
perigee height: 568 km
apogee height: 586 km
right ascension of ascending node: 64.5234°
argument of perigee: 266.5751°
revolutions per day: 14.96629636
mean anomaly at epoch: 93.3930°
orbit number at epoch: 56138

The dashed part of the orbit path shows where the satellite is in the earth's shadow,  

DLR